Location: Stanford
(52.2833°N, 2.4333°W)
Time: 22:55:10
(UTC+00:00)

Cosmos 1428 Rocket - Pass Details

Date: 22 January 2021
Orbit: 947 x 989 km, 82.9° (Epoch: 01 March)

Event Time Altitude Azimuth Distance (km) Brightness Sun altitude
Rises 19:14:20 0° 185° (S) 3,676 7.6 -23.3°
Reaches altitude 10° 19:16:49 10° 184° (S) 2,736 6.9 -23.7°
Maximum altitude 19:23:07 83° 99° (E) 1,002 4.4 -24.7°
Drops below altitude 10° 19:29:29 10° 12° (NNE) 2,762 6.8 -25.6°
Sets 19:32:01 0° 11° (NNE) 3,714 7.4 -26.0°
